Tracking 19827 objects as of 21-Aug-2019
HD Live streaming from Space Station
objects crossing your sky now

COSMOS 2251 DEB

Track COSMOS 2251 DEB now!
10-day predictions


NORAD ID: 34409
Int'l Code: 1993-036RA
Perigee: 658.6 km
Apogee: 782.6 km
Inclination: 74.1 °
Period: 99.1 minutes
Semi major axis: 7091 km
RCS: 0.0076 m2 (small)
Launch date: June 16, 1993
Source: Commonwealth of Independent States (former USSR) (CIS)
Launch site: PLESETSK MISSILE AND SPACE COMPLEX (PKMTR)

Note: This is SATELLITE DEBRIS
aabbcc
Your satellite tracking list
Your tracking list is empty




NASA's NSSDC Master Catalog

Two Line Element Set (TLE):
1 34409U 93036RA  19232.75833740 +.00000053 +00000-0 +19343-4 0  9997
2 34409 074.0667 344.7651 0087449 297.5926 213.9484 14.53732830556557
Source of the keplerian elements: AFSPC